Wind_Speed
32 33 35 33 31 32 34 34 37 35 34 33 37 38 39 42 44 46 48 51 53 54 55 56 60 63 65 67 69 72 75 77 78 76 75 75 76 77 76 74 70 66 65 64
33 35 38 36 32 34 36 36 37 38 37 36 40 39 40 42 45 46 49 51 53 54 55 56 59 62 64 67 69 71 74 76 77 76 75 74 75 76 75 73 69 65 64 63
36 37 40 38 33 35 38 38 39 40 39 40 41 41 41 44 46 48 49 52 54 55 56 56 58 61 64 66 68 70 72 75 77 77 75 74 74 75 75 73 69 65 63 62
40 40 42 37 36 37 40 40 41 42 42 43 44 43 43 46 48 49 51 53 55 56 56 56 58 61 63 66 67 69 71 74 76 76 75 73 73 74 74 72 69 65 62 61
43 44 44 38 37 39 42 42 42 44 44 45 46 46 44 47 49 51 52 54 55 56 56 56 57 60 63 65 66 68 70 72 74 75 74 72 72 73 73 72 69 65 62 60
45 47 47 42 39 40 42 44 44 46 46 47 48 49 48 49 51 52 53 54 55 56 55 56 57 59 62 64 66 67 68 70 73 74 73 72 71 71 72 71 69 65 61 59
46 49 50 44 42 42 42 43 45 48 49 50 52 52 52 52 53 54 54 54 55 56 55 55 57 59 61 64 65 66 67 69 71 73 72 71 70 70 70 70 68 65 61 58
47 50 49 44 43 41 41 43 46 49 51 53 54 53 53 53 54 54 54 54 55 55 55 56 57 59 61 63 65 66 66 67 69 71 71 70 68 68 69 69 68 64 60 57
52 51 48 46 43 40 41 44 47 50 52 54 55 55 54 54 55 54 54 54 54 55 55 56 57 59 61 63 65 66 65 65 67 69 69 68 67 66 67 67 67 64 60 56
58 54 50 48 45 43 45 48 49 51 53 54 56 56 56 56 56 55 55 55 55 56 57 57 58 60 61 63 65 65 65 64 65 67 67 67 65 64 65 65 65 64 60 56
62 58 56 53 50 50 50 51 52 53 54 55 57 58 58 58 58 58 58 58 58 58 59 59 59 60 62 63 64 64 64 62 63 64 66 65 63 63 63 64 65 64 61 56
67 63 63 61 57 57 57 56 56 57 57 57 59 60 60 61 61 62 61 61 61 61 61 61 61 61 62 63 64 63 62 61 61 62 63 63 62 61 61 62 64 63 61 56
69 68 69 67 63 62 62 61 60 60 61 61 61 63 63 63 64 64 64 64 64 64 63 63 62 62 63 63 63 63 61 59 59 60 61 61 60 59 59 60 62 62 60 55
67 69 70 68 67 65 64 64 63 63 62 63 63 64 64 64 64 64 65 65 65 65 65 64 63 63 63 63 62 61 59 57 57 58 58 58 57 56 56 57 59 59 59 55
61 63 66 65 65 64 64 64 64 63 62 62 62 62 61 61 60 61 62 63 64 64 64 64 63 62 62 61 60 59 57 55 55 55 55 56 55 54 54 55 56 57 57 55
54 56 57 59 59 59 60 60 59 58 57 56 56 56 56 55 55 55 57 59 60 61 62 61 61 61 60 60 59 57 55 53 53 53 53 53 52 51 51 52 53 54 54 53
44 45 47 48 49 50 50 51 52 52 52 51 52 52 53 53 53 53 54 54 55 56 58 58 58 59 59 59 58 56 53 51 50 50 50 50 50 49 48 49 50 52 52 52
35 37 39 40 40 43 45 47 48 49 50 51 50 50 50 50 50 51 51 52 53 54 55 56 56 57 57 57 56 53 51 49 48 47 47 47 47 46 46 46 47 49 50 51
35 37 39 40 42 43 44 46 47 47 48 48 48 49 49 50 50 50 49 50 51 53 54 54 54 54 54 54 53 52 50 47 46 45 44 44 44 43 43 43 45 46 48 48
39 40 42 44 45 46 46 46 47 48 49 50 50 50 51 52 52 52 51 51 52 52 53 53 53 52 52 52 51 50 48 45 43 42 41 41 41 41 40 41 42 44 45 46
42 43 44 45 46 47 49 50 52 52 53 54 55 55 55 55 55 54 54 52 52 52 52 52 51 50 50 50 50 48 45 43 41 39 38 38 38 38 38 38 39 41 43 44
48 48 49 51 52 53 55 56 57 58 58 59 59 60 60 60 59 57 56 56 55 54 52 51 50 50 49 48 47 46 44 41 38 37 36 36 35 35 35 36 37 38 40 42
52 53 55 57 58 59 59 60 61 63 64 65 65 66 65 64 64 63 61 59 57 55 53 51 49 49 48 47 45 44 41 38 36 34 33 33 33 32 33 33 34 36 38 39
56 57 58 60 61 62 62 64 66 67 69 70 70 71 71 70 69 67 65 62 59 56 53 50 48 47 47 44 42 41 39 36 34 32 31 31 30 30 30 31 32 33 35 37
59 60 61 62 63 65 67 69 70 72 73 74 74 74 74 72 70 68 66 62 58 55 52 49 46 45 43 41 39 38 36 34 32 29 28 28 28 27 28 28 29 31 33 35
60 61 62 64 66 69 71 73 74 75 76 76 75 74 73 70 68 65 62 59 55 52 49 47 44 42 40 38 37 35 34 32 29 26 26 26 25 25 26 26 27 28 31 33
59 61 63 65 67 70 72 74 74 74 74 74 72 70 68 65 62 58 55 52 50 47 44 42 41 39 37 36 35 33 32 30 27 24 24 24 23 23 24 24 25 26 29 31
Wind_Direction
266 265 265 264 266 271 277 283 287 292 294 299 299 306 310 313 317 321 324 327 329 332 335 338 341 342 343 344 345 346 347 349 349 348 348 348 350 352 354 356 356 355 354 355
267 265 266 267 269 273 276 280 285 288 292 295 297 303 306 309 313 317 320 323 326 329 332 335 338 341 342 343 344 345 347 348 349 348 348 349 350 352 355 356 357 356 355 356
271 267 268 270 272 272 276 280 283 287 291 291 295 299 303 305 309 313 317 320 323 326 329 332 335 339 341 342 343 344 346 347 348 348 348 349 350 352 355 357 358 357 356 357
275 273 271 274 273 272 275 278 282 285 288 291 294 298 301 303 307 311 315 318 320 323 326 329 333 337 339 341 342 343 345 347 348 348 348 349 350 352 355 357 358 358 358 358
276 276 276 276 275 275 275 278 281 284 286 289 292 295 298 301 305 308 312 315 317 320 323 326 330 334 338 340 341 342 344 345 347 347 348 348 350 352 355 357 358 359 359 359
276 277 278 281 280 278 278 280 282 283 285 287 290 293 296 299 302 306 310 312 314 317 320 324 328 332 335 338 340 341 342 344 346 347 347 348 349 351 354 357 358 359 359 359
275 277 278 284 285 284 283 284 283 284 285 287 289 292 296 298 302 305 308 310 312 314 318 321 325 329 332 336 338 339 341 342 344 346 346 347 348 350 353 356 358 360 360 360
273 274 280 283 283 284 283 282 283 283 285 287 289 292 295 297 300 302 305 307 310 312 316 319 322 326 329 333 335 337 339 340 342 344 345 346 347 350 352 356 358 360 0 0
271 273 276 278 281 281 281 280 280 281 284 286 289 292 294 296 298 300 302 305 307 310 313 316 319 323 326 330 332 334 337 338 340 343 344 345 346 348 351 354 357 359 0 1
271 273 274 275 276 276 275 276 277 279 282 284 287 290 292 294 296 298 300 302 304 307 310 313 316 319 322 326 329 331 334 336 338 341 342 343 345 347 350 353 356 358 0 1
273 274 274 273 274 273 273 274 275 277 279 282 284 287 289 291 293 295 297 299 301 304 307 309 312 315 318 322 325 328 331 333 336 338 340 342 343 346 349 352 355 358 360 1
274 275 274 274 273 274 274 275 275 276 277 278 280 283 285 287 289 292 294 297 299 301 303 306 309 311 314 318 321 324 327 330 333 336 338 340 341 344 347 350 354 357 360 1
273 273 274 275 275 275 275 276 277 277 279 279 280 281 282 285 287 289 292 294 296 298 300 302 304 306 310 313 317 320 323 327 329 333 336 338 340 342 345 349 352 356 359 1
272 272 273 274 275 276 277 278 279 279 280 281 282 283 284 286 287 288 289 290 292 294 296 297 299 302 304 308 312 315 319 323 326 329 333 336 338 340 344 347 351 354 358 0
271 272 274 275 276 277 278 279 280 282 283 283 284 285 286 287 288 289 288 289 290 291 292 294 296 298 300 304 307 311 315 318 322 326 330 334 336 338 342 346 349 353 356 359
273 274 276 277 279 279 280 281 282 283 284 285 286 287 288 288 289 289 289 289 289 289 290 291 293 294 296 299 303 306 310 314 318 322 326 331 334 336 340 344 348 351 355 358
278 279 280 280 281 282 283 284 285 286 287 288 289 290 290 290 290 290 289 289 289 289 289 289 290 291 293 295 298 302 305 310 314 318 323 328 331 334 338 342 346 350 354 357
284 285 286 286 286 286 286 287 288 289 290 291 291 291 293 293 293 292 291 290 288 288 288 287 288 289 290 292 294 298 301 305 309 314 320 325 329 332 336 340 344 348 352 356
289 289 289 290 291 291 292 292 291 291 292 291 291 292 293 294 294 294 294 294 292 290 288 287 286 287 288 289 292 294 297 300 305 310 316 322 326 329 334 338 342 346 350 354
288 288 289 290 291 292 292 293 293 293 293 293 292 292 293 294 294 294 294 294 294 291 287 285 285 285 286 287 288 291 293 296 300 306 313 319 323 327 331 336 340 345 349 353
289 289 289 289 289 290 291 291 291 292 292 292 291 291 292 292 293 293 293 293 293 292 288 285 283 283 283 284 285 287 289 292 296 302 310 316 320 324 329 334 338 343 348 352
288 288 288 288 289 289 289 290 290 290 291 291 291 291 291 292 291 291 291 291 292 291 288 284 281 279 280 281 282 284 285 288 292 299 307 313 317 321 326 332 336 341 346 351
288 288 288 288 288 288 288 289 289 290 290 291 291 291 290 290 290 289 288 288 288 288 286 282 279 276 276 277 279 280 281 284 289 296 304 310 314 318 324 329 334 339 344 349
287 287 287 288 288 289 289 289 289 290 290 290 290 290 289 288 288 287 287 286 285 285 283 279 276 274 273 273 275 276 277 279 285 292 301 307 311 315 321 327 333 338 343 348
286 287 288 288 289 289 289 290 290 290 290 290 290 289 288 288 287 286 285 284 283 282 279 274 271 271 270 269 270 271 272 275 281 289 298 304 308 312 319 325 331 336 341 347
286 287 288 289 290 291 292 292 292 292 291 290 289 288 287 286 286 285 283 282 281 278 275 270 266 267 266 264 264 265 267 271 277 286 295 301 305 309 316 323 328 334 340 345
287 289 291 292 293 294 295 295 295 294 293 292 291 290 288 286 284 282 281 280 278 276 272 267 264 264 262 259 258 259 262 267 273 282 291 298 301 306 313 320 326 332 338 344
Height
5825 5823 5821 5822 5823 5820 5816 5814 5810 5809 5806 5804 5797 5793 5787 5781 5775 5769 5762 5755 5747 5739 5731 5721 5711 5700 5688 5675 5662 5648 5634 5618 5603 5587 5571 5555 5538 5521 5504 5487 5470 5454 5439 5424
5818 5816 5812 5813 5815 5812 5809 5807 5803 5800 5798 5795 5789 5786 5781 5775 5769 5763 5756 5748 5741 5732 5724 5715 5705 5694 5683 5670 5657 5643 5629 5614 5598 5582 5567 5551 5535 5518 5501 5485 5468 5453 5438 5423
5809 5808 5804 5806 5809 5804 5801 5799 5795 5791 5791 5786 5782 5778 5774 5767 5762 5755 5749 5741 5734 5725 5717 5708 5699 5689 5677 5665 5651 5638 5624 5609 5594 5578 5563 5548 5532 5516 5499 5483 5467 5452 5437 5422
5799 5798 5796 5803 5799 5796 5792 5790 5787 5783 5780 5776 5773 5769 5765 5758 5753 5747 5741 5734 5726 5718 5710 5702 5692 5682 5671 5659 5646 5633 5619 5605 5590 5575 5560 5545 5529 5513 5497 5481 5466 5451 5437 5422
5788 5786 5785 5791 5790 5785 5782 5781 5778 5774 5771 5767 5762 5760 5757 5750 5745 5739 5733 5726 5718 5710 5703 5694 5685 5675 5665 5653 5641 5628 5615 5601 5587 5572 5557 5542 5526 5511 5495 5480 5465 5450 5436 5422
5778 5775 5774 5781 5778 5774 5772 5771 5769 5764 5760 5757 5752 5749 5748 5742 5736 5730 5725 5718 5710 5702 5694 5686 5678 5668 5659 5647 5636 5623 5611 5597 5583 5569 5554 5539 5524 5509 5494 5478 5463 5449 5435 5421
5768 5764 5764 5769 5766 5762 5762 5761 5756 5752 5748 5745 5741 5738 5735 5731 5726 5720 5714 5708 5701 5693 5686 5678 5670 5661 5652 5641 5630 5618 5606 5593 5580 5566 5551 5537 5522 5508 5493 5478 5463 5449 5435 5421
5758 5754 5758 5758 5754 5752 5750 5748 5744 5739 5735 5732 5729 5726 5723 5719 5714 5709 5703 5697 5691 5684 5677 5670 5662 5654 5645 5635 5625 5613 5601 5589 5576 5563 5549 5535 5520 5506 5492 5477 5463 5449 5435 5422
5745 5747 5748 5744 5743 5741 5738 5736 5732 5727 5724 5720 5716 5713 5710 5706 5702 5697 5692 5686 5680 5674 5667 5660 5653 5646 5638 5628 5618 5608 5596 5585 5572 5560 5546 5532 5519 5505 5491 5477 5463 5449 5436 5424
5731 5734 5735 5731 5730 5728 5725 5722 5719 5716 5712 5708 5704 5701 5697 5694 5689 5685 5680 5674 5669 5663 5657 5651 5644 5637 5630 5621 5612 5602 5591 5580 5568 5556 5544 5530 5517 5504 5490 5477 5463 5450 5437 5425
5716 5720 5718 5718 5716 5713 5710 5708 5706 5704 5700 5696 5691 5688 5684 5680 5676 5671 5667 5662 5657 5652 5647 5641 5635 5628 5621 5613 5605 5595 5585 5575 5564 5552 5541 5528 5515 5502 5489 5476 5463 5451 5438 5426
5700 5704 5698 5699 5701 5698 5694 5693 5691 5688 5686 5683 5678 5674 5670 5666 5663 5658 5654 5650 5645 5641 5636 5631 5625 5619 5612 5605 5597 5588 5579 5569 5559 5548 5537 5525 5513 5500 5488 5475 5462 5449 5437 5425
5683 5683 5678 5679 5681 5681 5677 5675 5674 5672 5669 5666 5663 5659 5655 5652 5649 5646 5642 5637 5633 5629 5624 5619 5614 5609 5602 5596 5589 5581 5572 5563 5554 5544 5533 5522 5510 5498 5486 5474 5461 5449 5437 5425
5664 5661 5657 5660 5661 5661 5659 5658 5656 5654 5652 5649 5646 5643 5639 5637 5634 5631 5627 5623 5619 5615 5611 5606 5602 5598 5591 5585 5579 5572 5565 5556 5548 5538 5528 5518 5507 5495 5484 5472 5461 5448 5437 5425
5644 5642 5640 5641 5642 5643 5642 5639 5637 5637 5635 5632 5629 5626 5623 5621 5619 5616 5612 5608 5604 5601 5597 5593 5589 5586 5580 5574 5569 5563 5556 5549 5541 5532 5523 5514 5503 5492 5481 5470 5459 5448 5436 5425
5625 5624 5624 5624 5625 5625 5623 5621 5619 5619 5617 5615 5612 5610 5607 5604 5602 5600 5596 5592 5588 5585 5582 5578 5576 5572 5567 5563 5558 5553 5547 5541 5534 5526 5518 5509 5499 5489 5479 5468 5458 5447 5436 5425
5610 5611 5610 5610 5610 5609 5607 5605 5603 5602 5600 5598 5596 5594 5591 5588 5586 5584 5580 5576 5573 5570 5567 5564 5561 5557 5554 5550 5547 5543 5537 5532 5526 5519 5512 5504 5495 5485 5475 5466 5456 5446 5435 5425
5599 5599 5598 5597 5596 5595 5593 5591 5589 5586 5584 5582 5580 5577 5575 5572 5569 5567 5564 5561 5558 5555 5552 5548 5546 5543 5540 5537 5535 5531 5527 5522 5517 5511 5505 5498 5489 5481 5472 5463 5454 5444 5434 5424
5591 5589 5588 5586 5584 5582 5580 5577 5575 5572 5570 5567 5565 5562 5559 5556 5553 5551 5547 5544 5541 5539 5537 5533 5530 5528 5527 5524 5522 5520 5516 5513 5508 5503 5498 5491 5484 5476 5468 5459 5451 5442 5432 5423
5581 5579 5577 5575 5572 5570 5567 5564 5561 5558 5554 5551 5549 5546 5544 5541 5537 5534 5531 5529 5526 5523 5520 5517 5515 5514 5513 5511 5509 5507 5505 5502 5499 5495 5490 5485 5478 5471 5463 5456 5448 5439 5431 5422
5571 5568 5565 5563 5560 5557 5553 5549 5546 5542 5539 5535 5532 5529 5526 5524 5520 5517 5514 5512 5510 5506 5504 5502 5500 5500 5499 5497 5496 5496 5494 5492 5489 5486 5482 5478 5472 5465 5459 5452 5444 5437 5428 5420
5559 5555 5552 5549 5546 5542 5538 5534 5529 5525 5522 5518 5514 5511 5508 5505 5502 5499 5497 5494 5493 5490 5488 5486 5485 5485 5484 5484 5484 5484 5483 5482 5480 5478 5474 5470 5465 5459 5453 5447 5441 5434 5426 5418
5544 5541 5537 5533 5529 5525 5522 5517 5512 5508 5504 5500 5495 5491 5488 5485 5482 5480 5478 5476 5474 5473 5472 5470 5470 5470 5470 5470 5471 5472 5472 5471 5470 5469 5466 5463 5458 5453 5448 5442 5437 5430 5423 5416
5528 5524 5519 5515 5511 5507 5503 5499 5494 5489 5484 5479 5474 5469 5465 5463 5461 5458 5456 5456 5454 5454 5454 5454 5454 5454 5455 5457 5459 5460 5461 5461 5460 5460 5458 5455 5451 5447 5442 5437 5432 5426 5420 5413
5510 5506 5502 5497 5492 5488 5483 5478 5474 5468 5462 5457 5451 5446 5441 5437 5436 5436 5434 5434 5434 5435 5436 5436 5438 5439 5442 5445 5447 5449 5450 5451 5451 5451 5450 5447 5444 5441 5437 5432 5427 5422 5417 5410
5492 5488 5484 5479 5473 5467 5461 5455 5450 5444 5437 5431 5426 5421 5416 5413 5412 5411 5412 5412 5413 5415 5417 5419 5422 5425 5428 5432 5435 5437 5439 5441 5442 5442 5441 5439 5437 5434 5431 5427 5422 5418 5413 5407
5475 5470 5465 5461 5454 5446 5438 5431 5424 5418 5411 5404 5399 5395 5390 5388 5388 5389 5390 5392 5394 5397 5400 5403 5407 5411 5415 5419 5423 5426 5429 5431 5433 5433 5433 5432 5430 5428 5425 5422 5418 5413 5409 5404